Regional Weather Roundup
Issued by NWS Grand Forks, ND

Home | Current Version | Previous Version | Graphics & Text | Print | Product List | Glossary On
Versions: 1 2 3 4 5 6 7 8 9 10 11 12 13 14 15 16 17 18 19 20 21 22 23 24 25 26 27 28 29 30 31 32 33 34 35 36 37 38 39 40 41 42 43 44 45 46 47 48 49 50
000
ASUS43 KFGF 100610
RWRFGF
PRAIRIE TO PINES  WEATHER ROUNDUP
NATIONAL WEATHER SERVICE EASTERN NORTH DAKOTA/GRAND FORKS ND
100 AM CDT THU JUL 10 2014

 **SATELLITE DATA USED TO AUGMENT SKY COVER AT AUTOMATED STATIONS**
 *****  WEATHER ACROSS EASTERN NORTH DAKOTA  *****

CITY           SKY/WX    TMP DP  RH WIND       PRES   REMARKS
GRAND FORKS    CLEAR     60  52  74 SE6       29.96F
6HR MIN TEMP:  59; 6HR MAX TEMP:  75;

GRAND FRKS AFB CLEAR     57  53  85 S5        29.97S
GRAND FRKS NWS   N/A     61 N/A N/A SE2         N/A
DEVILS LAKE    CLEAR     64  52  63 SE10      29.94S
6HR MIN TEMP:  64; 6HR MAX TEMP:  72;

FARGO          CLEAR     61  51  70 SE6       29.98
WAHPETON ARPT  CLEAR     61  48  63 SE5       30.00S
$$

 ***** WEATHER ACROSS CENTRAL AND WESTERN NORTH DAKOTA  *****

CITY           SKY/WX    TMP DP  RH WIND       PRES   REMARKS
BISMARCK       CLEAR     65  59  81 S10       29.95S
6HR MIN TEMP:  62; 6HR MAX TEMP:  78;

MINOT          CLEAR     63  58  83 SE7       29.89F
6HR MIN TEMP:  62; 6HR MAX TEMP:  76;

JAMESTOWN      CLEAR     62  55  77 S6        29.97S
6HR MIN TEMP:  61; 6HR MAX TEMP:  75;

MINOT AFB      CLEAR     62  62  99 SE9       29.88F
GARRISON         N/A     64  60  87 SE7       29.91F
WILLISTON      CLEAR     70  58  65 S6        29.83F
6HR MIN TEMP:  70; 6HR MAX TEMP:  84;

DICKINSON      CLEAR     63  56  78 S13       29.91F
6HR MIN TEMP:  62; 6HR MAX TEMP:  78;

HETTINGER      CLEAR     61  53  75 SE6       29.96S
6HR MIN TEMP:  61; 6HR MAX TEMP:  79;

$$

 *****  OTHER AIRPORT OBSERVATIONS IN OUR AREA  *****

CITY           SKY/WX    TMP DP  RH WIND       PRES   REMARKS
WALHALLA         N/A     59  55  88 CALM        N/A
GRAFTON AIRPOR FAIR      57  52  82 SE3       29.96S
VALLEY CITY AR CLOUDY    57  57 100 S6        29.99S
CANDO          FAIR      59  55  88 SE9       29.95S
CAVALIER APRT  FAIR      59  54  82 S6        29.95F
GWINNER        CLEAR     63  59  88 SE6       30.00S
ROLLA          CLOUDY    59  55  88 S8        29.95S
 ***** THE ABOVE OBSERVATIONS ARE NON NWS ARE NOT QUALITY
       CONTROLLED AND MAY MIS-REPORT RAIN FOR SNOW...
$$

  *****  WEATHER ACROSS NORTHERN MINNESOTA  *****

CITY           SKY/WX    TMP DP  RH WIND       PRES   REMARKS
FLAG ISLAND    PTCLDY    63  54  72 W6        29.97S
WARROAD        CLEAR     54  52  94 CALM      29.99S
ROSEAU         CLEAR     54  48  82 CALM      29.99S
HALLOCK        CLEAR     59  52  77 SE7       29.96F
THF RVR FALLS  CLEAR     57  52  82 CALM      29.99F
6HR MIN TEMP:  54; 6HR MAX TEMP:  72;

BAUDETTE       CLEAR     55  50  83 CALM      30.00
6HR MIN TEMP:  54; 6HR MAX TEMP:  71;

WASKISH        NOT AVBL
CROOKSTON      CLEAR     57  54  88 SE5       29.99S
$$
  *****  WEATHER ACROSS CENTRAL AND WEST MINNESOTA  *****

CITY           SKY/WX    TMP DP  RH WIND       PRES   REMARKS
FOSSTON        CLEAR     52  48  87 CALM      30.01S
BEMIDJI        CLEAR     51  49  92 CALM      30.02R
PARK RAPIDS    CLEAR     55  52  89 CALM      30.02R
6HR MIN TEMP:  55; 6HR MAX TEMP:  73;

ELBOW LAKE     FAIR      63  54  72 E5        30.01S
WADENA         CLEAR     54  50  87 CALM      30.02S
DETROIT LAKES  CLEAR     59  54  82 CALM      30.02F
MOORHEAD       NOT AVBL
FERGUS FALLS   CLEAR     63  52  67 E3        30.01S
MORRIS MN      CLEAR     57  55  94 SE5       30.00S
STAPLES        CLEAR     54  52  94 CALM      30.02S
$$
  *****  WEATHER ELSEWHERE ACROSS MINNESOTA  *****

CITY           SKY/WX    TMP DP  RH WIND       PRES   REMARKS
DULUTH         MOCLDY    57  49  74 CALM      30.04R
6HR MIN TEMP:  56; 6HR MAX TEMP:  72;

INTRNTL FALLS  CLEAR     48  47  96 CALM      30.00S
6HR MIN TEMP:  48; 6HR MAX TEMP:  71;

ELY            CLEAR     48  45  87 CALM      30.04R
CLOQUET        CLEAR     55  52  88 CALM      30.04S
WHEATON        CLEAR     55  52  88 SE6       30.02R
BRAINERD       CLEAR     60  53  77 CALM      30.02S
6HR MIN TEMP:  60; 6HR MAX TEMP:  79;

HIBBING        CLOUDY    54  51  90 CALM      30.03R
6HR MIN TEMP:  52; 6HR MAX TEMP:  73;

ALEXANDRIA     CLEAR     60  54  80 CALM      30.03
6HR MIN TEMP:  60; 6HR MAX TEMP:  74;

SAINT CLOUD    PTCLDY    60  57  89 NE5       30.01S
6HR MIN TEMP:  59; 6HR MAX TEMP:  78;

MINNEAPOLIS    CLEAR     65  56  72 SE6       30.02S
6HR MIN TEMP:  65; 6HR MAX TEMP:  79;

$$

  *****  WEATHER ACROSS SOUTH DAKOTA  *****

CITY           SKY/WX    TMP DP  RH WIND       PRES   REMARKS
SIOUX FALLS    CLEAR     66  58  75 E5        30.01S
6HR MIN TEMP:  64; 6HR MAX TEMP:  81;

BROOKINGS      NOT AVBL
WATERTOWN      CLEAR     62  53  72 CALM      30.02
6HR MIN TEMP:  62; 6HR MAX TEMP:  76;

HURON          CLEAR     65  58  78 SE7       29.98S
6HR MIN TEMP:  64; 6HR MAX TEMP:  80;

SISSETON         N/A     58  56  93 S5        29.99S
ABERDEEN       CLEAR     58  54  86 SE5       29.98S
6HR MIN TEMP:  56; 6HR MAX TEMP:  75;

MITCHELL       CLEAR     65  60  84 S5        29.99S
PIERRE         CLEAR     59  54  83 SE6       29.96S
6HR MIN TEMP:  59; 6HR MAX TEMP:  79;

MOBRIDGE       CLEAR     64  57  78 SE8       29.95R
RAPID CITY     CLEAR     60  55  83 SE5       29.98S
6HR MIN TEMP:  59; 6HR MAX TEMP:  77;

$$

  *****  SOME WEATHER IN NEARBY STATES *****

CITY           SKY/WX    TMP DP  RH WIND       PRES   REMARKS
GLASGOW MT     CLEAR     69  54  58 E13       29.73F
6HR MIN TEMP:  69; 6HR MAX TEMP:  89;

GREAT FALLS MT MOCLDY    72  48  42 SW9       29.81F
6HR MIN TEMP:  70; 6HR MAX TEMP:  88;

CHEYENNE WY    CLEAR     63  49  60 W6        30.10R
6HR MIN TEMP:  63; 6HR MAX TEMP:  85;

SCOTTSBLUFF NE CLEAR     66  61  84 E9        29.94F
6HR MIN TEMP:  66; 6HR MAX TEMP:  94;

OMAHA NE       CLOUDY    72  61  68 S9        30.03
6HR MIN TEMP:  70; 6HR MAX TEMP:  81;

DES MOINES IA  PTCLDY    68  59  73 S7        30.05R
6HR MIN TEMP:  68; 6HR MAX TEMP:  79;

DAVENPORT IA   MOCLDY    64  57  78 SE5       30.08S
6HR MIN TEMP:  61; 6HR MAX TEMP:  73;

CHICAGO IL     CLEAR     63  53  70 SE3       30.08R
6HR MIN TEMP:  62; 6HR MAX TEMP:  76;

EAU CLAIRE WI  CLEAR     59  54  83 CALM      30.04S
6HR MIN TEMP:  59; 6HR MAX TEMP:  75;

LA CROSSE WI   CLEAR     62  57  83 SE7       30.05R
6HR MIN TEMP:  62; 6HR MAX TEMP:  78;

$$

  *****  SOME NATIONAL WEATHER *****

CITY           SKY/WX    TMP DP  RH WIND       PRES   REMARKS
LA GUARDIA NY  MOCLDY    75  62  64 NW3       29.97R
6HR MIN TEMP:  75; 6HR MAX TEMP:  84;

RALEIGH NC     CLOUDY    74  69  85 CALM      30.03F
6HR MIN TEMP:  74; 6HR MAX TEMP:  76; 6HR PCP: TRACE;

ATLANTA GA     MOCLDY    73  67  81 W6        30.06F
6HR MIN TEMP:  72; 6HR MAX TEMP:  83;

NEW ORLEANS LA MOCLDY    75  70  84 SW5       30.06F
6HR MIN TEMP:  74; 6HR MAX TEMP:  78;

OKLAHOMA CITY  MOCLDY    77  69  76 SE8       30.01
6HR MIN TEMP:  76; 6HR MAX TEMP:  85;

ALBUQUERQUE NM MOCLDY    73  54  51 N9        30.20R
6HR MIN TEMP:  73; 6HR MAX TEMP:  89; 6HR PCP:  0.22;

SALT LAKE CITY LGT RAIN  71  62  73 SE13      29.99R
6HR MIN TEMP:  71; 6HR MAX TEMP:  92; 6HR PCP: TRACE;

LOS ANGELES CA MOCLDY    67  61  81 SW6       29.96R
6HR MIN TEMP:  67; 6HR MAX TEMP:  74;

BOISE ID       CLEAR     74  53  48 S3        29.90R
6HR MIN TEMP:  74; 6HR MAX TEMP:  88;




USA.gov is the U.S. government's official web portal to all federal, state and local government web resources and services.